Location: Guferjoch
(46.7462°N, 8.4506°E)
Time: 13:16:37
(UTC+00:00)

ADEOS II - Pass Details

Date: 14 July 2020
Orbit: 799 x 801 km, 98.5° (Epoch: 06 August)

Event Time Altitude Azimuth Distance (km) Brightness Sun altitude
Rises 01:17:18 0° 20° (NNE) 3,321 7.0 -17.6°
Reaches altitude 10° 01:19:47 10° 27° (NNE) 2,386 5.9 -17.4°
Maximum altitude 01:24:46 41° 98° (E) 1,141 3.0 -17.0°
Enters shadow 01:28:37 16° 163° (SSE) 1,982 3.7 -16.7°
